CHINASAT 12 (ZX 12)

Last updated on Oct. 1, 2020, 5:42 a.m. UTC

1 39017U 12067A   20274.96091178 -.00000220  00000-0  00000+0 0  9996
2 39017   0.0158 164.8578 0003792  15.4254 263.3224  1.00272725 28803
UTC
Height (km)
Latitude
Longitude
Inclination
Orbital Period
UTC large
Height (km)
Speed (km/s)
/
Latitude / Longitude
Inclination (degrees)
Orbital Period (minutes)
Azimuth
Elevation
Range (km)
Doppler Factor
iOS Compass Heading
iOS Angle

Next 30 passes for location: Hong Kong

Rise time Rise Azimuth (degrees) Set time Set Azimuth (degrees) Duration Max altitude (degrees)

No matching passes for this satellites